Regional Weather Roundup
Issued by NWS

Home | Current Version | Previous Version | Graphics & Text | Print | Product List | Glossary On
Versions: 1 2 3 4 5 6 7 8 9 10 11 12 13 14 15 16 17 18 19 20 21 22 23 24 25 26 27 28 29 30 31 32 33 34 35 36 37 38 39 40 41 42 43 44 45 46 47 48 49 50
000
ASUS45 KSLC 270710
RWRUT

UTAH REGIONAL WEATHER ROUNDUP
NATIONAL WEATHER SERVICE SALT LAKE CITY UT
1200 AM MST TUE JAN 27 2015

UTZ001>011-023>025-270800-

NORTHERN UTAH

CITY           SKY/WX    TMP DP  RH WIND       PRES   REMARKS
BRIGHAM CITY   PTCLDY    33  31  92 CALM      30.21S
HILL AFB       PTCLDY    40  27  58 E5        30.20S
LOGAN          CLEAR     30  28  92 CALM      30.22F
OGDEN          PTCLDY    33  31  92 SE5       30.20R WCI  29
PROVO AIRPORT  PTCLDY    28  27  93 CALM      30.23R
SALT LAKE CITY PTCLDY    34  31  88 SE6       30.20S WCI  29
VERNAL         MOCLDY    26  21  81 W6        30.34F WCI  19
WENDOVER       MOCLDY    28  25  86 NE5       30.21S WCI  23
HEBER CITY     PTCLDY    27  23  86 CALM      30.26S
WEST JORDAN    CLEAR     34  32  93 SW3       30.20F

$$

UTZ012>022-026-027-270800-

SOUTHERN/CENTRAL UTAH

CITY           SKY/WX    TMP DP  RH WIND       PRES   REMARKS
BLANDING       PTCLDY    41  24  50 NE5       30.39F
BRYCE CANYON   PTCLDY    24  21  88 SW3       30.32F
CEDAR CITY     MOCLDY    36  29  75 W5        30.21R WCI  32
DELTA          PTCLDY    33  31  96 S6        30.21F WCI  27
MILFORD        CLOUDY    33  28  81 W9        30.21R WCI  25
MOAB/CYNLANDS  CLEAR     29  25  85 CALM      30.29R
PRICE          PTCLDY    31  23  72 NE7       30.32R WCI  24
ST GEORGE      CLOUDY    52  28  40 N7        30.18S
KANAB            N/A     48  25  40 N9G16     30.27R

$$

REGIONAL REPORTS     COLORADO/ARIZONA

CITY           SKY/WX    TMP DP  RH WIND       PRES   REMARKS
CRAIG, CO        N/A     16  13  88 SW5       30.35R WCI   9
GRAND JUNCTION CLEAR     32  26  78 E8        30.33R WCI  25
RIFLE          CLEAR     30  24  78 E3        30.37R
MONTROSE       PTCLDY    28  22  78 SE6       30.37R WCI  22
CORTEZ         CLEAR     32  24  72 NE6       30.34F WCI  26
PAGE, AZ       NOT AVBL
GRAND CANYON   LGT RAIN  46  26  45 VRB3      30.30R
KINGMAN        CLOUDY    47  43  86 S6        30.20R
FLAGSTAFF      CLOUDY    38  29  70 NE3       30.32R

$$

REGIONAL REPORTS    NEVADA/IDAHO/WYOMING

CITY           SKY/WX    TMP DP  RH WIND       PRES   REMARKS
LAS VEGAS, NV  LGT RAIN  55  48  77 S8        30.14S
ELY            MOCLDY    31  24  75 S12       30.21S WCI  22
ELKO           CLOUDY    37  28  70 E6        30.14R WCI  32
POCATELLO, ID  CLEAR     27  27 100 CALM      30.20R
BURLEY         PTCLDY    35  31  85 NE8       30.13S WCI  29
EVANSTON, WY   PTCLDY    34  26  72 E6        30.28F WCI  29
ROCK SPRINGS   CLEAR     32  24  72 VRB5      30.29R WCI  27
KEMMERER       PTCLDY    30  23  74 NW9       30.31R WCI  22

$$



USA.gov is the U.S. government's official web portal to all federal, state and local government web resources and services.